Terminal Aerodrome Forecast
Issued by NWS Cheyenne, WY

Home | Current Version | Previous Version | Text Only | Print | Product List | Glossary On
Versions: 1 2 3 4 5 6 7 8 9 10 11 12 13 14 15 16 17 18 19 20 21 22 23 24 25 26 27 28 29 30 31 32 33 34 35 36
000
FTUS45 KCYS 021100
TAFCYS
TAF
KCYS 021120Z 0212/0312 23004KT P6SM SKC
     FM021700 23012G20KT P6SM SKC
     FM030200 24007KT P6SM SKC=

USA.gov is the U.S. government's official web portal to all federal, state and local government web resources and services.